Torna al catalogo

STARLINK-32248

AttivoComunicazioniVLEO
NORAD 61219·PAYLOAD·🇺🇸 United States

Lanciato Sep 20, 2024 da Vandenberg Space Force Base

Loading…

Prossimi Passaggi (prossime 24 ore)

TLE

AggiornatoSource: CelesTrak SupGP

Epoca: Sep 15, 2026, 03:40 UTC

1 61219C 24171V   26258.15326389  .00027635  00000+0  88862-3 0  2589
2 61219  53.1571 161.3665 0001365  81.0814 178.2389 15.31689301    14

Traccia STARLINK-32248 in tempo reale con AllMySat

Download on the App Store